Simultaneous Nadir Overpasses (SNOs) Predictions

Prediction of SNOs between NPP and TERRA Satellite Orbit:

Table of predicted SNOs for the next 14.0 days since TLE Epoch: 1/20/2013
Index Date (NPP) Time (NPP) Lat,Lon (NPP) SZA (NPP ) Date (TERRA) Time (TERRA) Lat,Lon (TERRA) SZA (TERRA ) Distance(km) Time Diff (sec)
1 01/21/2013 03:45:00 -69.03, -58.95 91.12 01/21/2013 03:46:08 -68.93, -57.18 91.28 71.43 68
2 01/21/2013 04:35:30 68.13, 109.54 87.95 01/21/2013 04:35:47 68.15, 109.51 87.96 2.62 17
3 01/21/2013 05:26:11 -68.01, -82.98 92.19 01/21/2013 05:25:18 -67.99, -83.05 92.21 3.51 53
4 01/23/2013 20:01:45 -68.21, 57.88 92.58 01/23/2013 20:02:49 -68.23, 57.85 92.57 2.72 64
5 01/23/2013 20:52:30 68.12,-134.69 87.32 01/23/2013 20:52:16 68.12,-134.64 87.32 2.21 14
6 01/23/2013 21:43:04 -67.62, 33.25 93.21 01/23/2013 21:41:52 -67.68, 32.48 93.12 33.14 72
7 01/26/2013 12:18:45 -68.16, 173.70 93.29 01/26/2013 12:19:18 -68.19, 173.68 93.27 2.85 33
8 01/26/2013 13:09:29 68.02, -18.82 86.56 01/26/2013 13:08:46 68.02, -18.88 86.56 2.68 43
9 01/29/2013 03:45:05 68.27, 121.99 86.13 01/29/2013 03:46:16 68.29, 122.04 86.14 2.95 71
10 01/29/2013 04:35:46 -68.13, -70.51 94.02 01/29/2013 04:35:47 -68.13, -70.51 94.03 0.43 1
11 01/29/2013 05:26:28 67.88, 97.10 85.72 01/29/2013 05:25:16 67.90, 96.86 85.74 10.03 72
12 01/31/2013 20:02:05 68.20,-122.18 85.32 01/31/2013 20:02:44 68.21,-122.17 85.32 0.75 39
13 01/31/2013 20:52:46 -68.06, 45.32
